Regional Weather Roundup
Issued by NWS

Home | Current Version | Previous Version | Text Only | Print | Product List | Glossary Off
Versions: 1 2 3 4 5 6 7 8 9 10 11 12 13 14 15 16 17 18 19 20 21 22 23 24 25 26 27 28 29 30 31 32 33 34 35 36 37 38 39 40 41 42 43 44 45 46 47 48 49 50

000
ASUS43 KLOT 282103
RWRIL

ILLINOIS REGIONAL WEATHER ROUNDUP
NATIONAL WEATHER SERVICE CHICAGO/ROMEOVILLE IL
400 PM CDT WED SEP 28 2016

NOTE: "FAIR" INDICATES FEW OR NO CLOUDS BELOW 12,000 FEET WITH NO
SIGNIFICANT WEATHER AND/OR OBSTRUCTIONS TO VISIBILITY.

* THESE STATIONS ARE NOT UNDER NWS QUALITY CONTROL. THEY ALSO MAY NOT
  REPORT WEATHER SUCH AS PRECIPITATION OR FOG.

ILZ001-002-007-009-015-016-024-282200-
NORTHWEST ILLINOIS

CITY           SKY/WX    TMP DP  RH WIND       PRES   REMARKS
MOLINE         CLOUDY    63  47  55 N12       30.05R
STERLING*      PTSUNNY   58  54  86 N6        30.04R
$$

ILZ003-004-008-010-011-017-018-282200-
NORTH CENTRAL ILLINOIS

CITY           SKY/WX    TMP DP  RH WIND       PRES   REMARKS
ROCKFORD       MOSUNNY   61  52  72 N10       30.04R
FREEPORT*      CLOUDY    58  50  74 N13G20    30.06R
ROCHELLE*      MOSUNNY   60  50  68 N15       30.03R
$$

ILZ005-006-012>014-019>023-282200-
NORTHEAST ILLINOIS

CITY           SKY/WX    TMP DP  RH WIND       PRES   REMARKS
CHICAGO-OHARE  LGT RAIN  57  50  77 N14       29.97R
CHICAGO-MIDWAY CLOUDY    56  51  84 NW9       29.97R
AURORA         CLOUDY    63  46  54 N12       29.99R
LANSING*       CLOUDY    55  54  95 NW12G17   29.96R
WAUKEGAN       LGT RAIN  59  46  62 N10G18    29.99R
DUPAGE AIRPORT CLOUDY    63  47  55 N16       29.98R
KANKAKEE*      LGT RAIN  56  52  86 N8G16     29.97R
WHEELING       CLOUDY    59  47  64 N10       29.99R
NORTHERLY ISL    N/A     57  49  74 N12         N/A
$$

LMZ740>746-282200-
SOUTHERN LAKE MICHIGAN

STATION/POSITION SKY/WX   TEMP    WIND        PRES    VSBY  WAVE
                          AIR SEA DIR/SP/G                  HT/PER
                          (F)     (DEG/KT/KT) (MB)    (MI)  (FT/S)
SOUTHERN BUOY              64 69   50/ 19/ 23 1014.3R         4/ 5
WILMETTE HARBOR            57 58   20/ 19/ 27   N/A           5/ 4
HARRISON CRIB              57     310/ 10/ 12   N/A
BURNHAM HARBOR             57     310/ 11/ 17   N/A
CALUMET HARBOR             56     300/  8/ 15 1013.7R
BURNS HARBOR               60      40/ 13/ 18 1014.2R
MICHIGAN CITY              58      10/ 11/ 12   N/A
MICHIGAN CITY 6N           59 66   30/ 12/ 14   N/A           3/ 4
ST. JOSEPH                 61 65   20/ 10/ 12 1013.7R         2/ 4
$$

ILZ025>027-034>036-040-047-049-050-058-095>099-282200-
WEST-CENTRAL ILLINOIS

CITY           SKY/WX    TMP DP  RH WIND       PRES   REMARKS
QUINCY         CLOUDY    61  47  59 NW14      30.07R
GALESBURG*     CLOUDY    60  48  64 N13       30.05R
MACOMB*        CLOUDY    61  47  61 NW13      30.07S
$$

ILZ028>032-037-038-041>044-048-051>054-059>061-282200-
CENTRAL ILLINOIS

CITY           SKY/WX    TMP DP  RH WIND       PRES   REMARKS
BLOOMINGTON    CLOUDY    58  49  72 N9        30.00R
DECATUR        CLOUDY    63  45  51 NW20G25   29.99R
PEORIA         LGT RAIN  57  51  80 N6        30.03R
LINCOLN*       CLOUDY    61  49  65 NW6       30.01R
SPRINGFIELD    CLOUDY    61  47  59 NW12G23   30.03R
TAYLORVILLE    NOT AVBL
$$

ILZ033-039-045-046-055>057-062-063-282200-
EAST-CENTRAL ILLINOIS

CITY           SKY/WX    TMP DP  RH WIND       PRES   REMARKS
CHAMPAIGN      CLOUDY    58  47  66 N15       29.97R
MATTOON        CLOUDY    61  45  55 NW17      29.96R
$$

ILZ079-100>102-282200-
SOUTHWEST ILLINOIS

CITY           SKY/WX    TMP DP  RH WIND       PRES   REMARKS
BELLEVILLE     SUNNY     65  47  51 N10G18    30.01R
CAHOKIA*       PTSUNNY   66  43  43 N17G23    30.02R
SPARTA*        PTSUNNY   67  47  49 N12       30.01R
$$

ILZ064>066-069>071-074>076-080>082-084>086-088>090-092>094-282200-
SOUTH-CENTRAL ILLINOIS

CITY           SKY/WX    TMP DP  RH WIND       PRES   REMARKS
CARBONDALE     PTSUNNY   66  48  52 N14G21    29.98R
MARION         PTSUNNY   66  46  48 NW17      29.98
MT. VERNON     CLOUDY    64  45  48 N8        29.99R
CENTRALIA*     CLOUDY    64  47  55 N16G22    29.99R
SALEM*         CLOUDY    63  45  51 N15       29.99R
METROPOLIS*    MOSUNNY   72  47  41 NW9G22    29.95R
$$

ILZ067-068-072-073-078-083-087-091-282200-
SOUTHEAST ILLINOIS

CITY           SKY/WX    TMP DP  RH WIND       PRES   REMARKS
LAWRENCEVILLE  PTSUNNY   66  45  46 NW18G30   29.93R
FLORA*         CLOUDY    64  46  51 NW16G23   29.98R
HARRISBURG*    PTSUNNY   68  47  48 NW15G25   29.96R
ROBINSON*      MOSUNNY   63  46  52 NW14G24   29.94R
$$

ABBREVIATIONS USED IN REMARKS
   TC - TEMPERATURE IN CELSIUS
  WCI - WIND CHILL INDEX
   HX - HEAT INDEX
  VSB - VISIBILITY
$$





USA.gov is the U.S. government's official web portal to all federal, state and local government web resources and services.